KLM1352 EHAM-EDDF

Flight info

Callsign KLM1352
Flight time 0h 43m
Altitude 33000
Route EDUPO Z739 MISGO DCT DIXAT DIXAT1A
Aircraft A21N/M-SDE2E3FGHIRWXY/LB1

Departure

Time 2026-05-04 20:23
Airport Amsterdam Airport Schiphol (EHAM)

Arrival

Time 2026-05-04 21:07
Airport Frankfurt Main Airport (EDDF)
Time Latitude Longitude Altitude Speed Heading
2026-05-04 19:59 52.30505 4.76536 3 ft 0 kts 54°
2026-05-04 20:12 52.30500 4.76524 3 ft 2 kts 54°
2026-05-04 20:13 52.30496 4.76516 3 ft 4 kts 58°
2026-05-04 20:13 52.30491 4.76500 3 ft 4 kts 72°
2026-05-04 20:13 52.30491 4.76462 3 ft 4 kts 119°
2026-05-04 20:13 52.30505 4.76437 3 ft 1 kts 147°
2026-05-04 20:14 52.30508 4.76433 3 ft 0 kts 147°
2026-05-04 20:17 52.30506 4.76435 3 ft 2 kts 147°
2026-05-04 20:17 52.30486 4.76457 3 ft 5 kts 147°
2026-05-04 20:17 52.30444 4.76500 3 ft 9 kts 148°
2026-05-04 20:18 52.30379 4.76562 3 ft 13 kts 158°
2026-05-04 20:18 52.30293 4.76518 3 ft 16 kts 232°
2026-05-04 20:18 52.30229 4.76350 3 ft 19 kts 238°
2026-05-04 20:18 52.30154 4.76153 3 ft 22 kts 238°
2026-05-04 20:19 52.30085 4.75971 3 ft 13 kts 238°
2026-05-04 20:19 52.30032 4.75830 3 ft 16 kts 238°
2026-05-04 20:19 52.29967 4.75659 3 ft 19 kts 238°
2026-05-04 20:19 52.29889 4.75461 3 ft 22 kts 237°
2026-05-04 20:20 52.29841 4.75224 3 ft 25 kts 287°
2026-05-04 20:20 52.29950 4.74991 3 ft 27 kts 311°
2026-05-04 20:20 52.30080 4.74750 3 ft 29 kts 311°
2026-05-04 20:20 52.30222 4.74491 3 ft 32 kts 311°
2026-05-04 20:21 52.30325 4.74278 3 ft 8 kts 290°
2026-05-04 20:21 52.30338 4.74185 3 ft 9 kts 271°
2026-05-04 20:21 52.30251 4.73955 3 ft 15 kts 221°
2026-05-04 20:22 52.30189 4.73812 3 ft 18 kts 280°
2026-05-04 20:22 52.30280 4.73739 -1 ft 0 kts
2026-05-04 20:23 52.30281 4.73739 -1 ft 0 kts
2026-05-04 20:23 52.30612 4.73776 0 ft 99 kts
2026-05-04 20:23 52.31587 4.73871 70 ft 171 kts
2026-05-04 20:23 52.32805 4.73976 1039 ft 176 kts
2026-05-04 20:24 52.33983 4.74671 1989 ft 195 kts 33°
2026-05-04 20:24 52.35157 4.76157 2691 ft 236 kts 40°
2026-05-04 20:24 52.36491 4.77963 3547 ft 257 kts 31°
2026-05-04 20:24 52.38172 4.79008 4664 ft 264 kts 20°
2026-05-04 20:25 52.39754 4.80560 5934 ft 269 kts 39°
2026-05-04 20:25 52.41135 4.82690 7072 ft 277 kts 46°
2026-05-04 20:25 52.42167 4.85375 8002 ft 283 kts 70°
2026-05-04 20:25 52.42456 4.88567 8928 ft 287 kts 89°
2026-05-04 20:26 52.42453 4.91873 9873 ft 293 kts 91°
2026-05-04 20:26 52.42278 4.95240 10720 ft 310 kts 102°
2026-05-04 20:26 52.41533 4.98637 11606 ft 326 kts 119°
2026-05-04 20:26 52.40121 5.01611 12520 ft 339 kts 138°
2026-05-04 20:27 52.38204 5.03976 13480 ft 351 kts 146°
2026-05-04 20:27 52.36154 5.06254 14373 ft 362 kts 147°
2026-05-04 20:27 52.34056 5.08634 15240 ft 372 kts 144°
2026-05-04 20:27 52.32145 5.11560 16122 ft 380 kts 133°
2026-05-04 20:28 52.30362 5.14791 17034 ft 385 kts 132°
2026-05-04 20:28 52.28571 5.18082 17971 ft 390 kts 133°
2026-05-04 20:28 52.26754 5.21406 18840 ft 394 kts 133°
2026-05-04 20:28 52.24923 5.24753 19684 ft 397 kts 132°
2026-05-04 20:29 52.23235 5.28344 20554 ft 400 kts 127°
2026-05-04 20:29 52.21621 5.32061 21452 ft 402 kts 126°
2026-05-04 20:29 52.20011 5.35788 22372 ft 403 kts 127°
2026-05-04 20:29 52.18388 5.39529 23329 ft 403 kts 127°
2026-05-04 20:30 52.16771 5.43247 24178 ft 402 kts 127°
2026-05-04 20:30 52.15156 5.46953 25004 ft 399 kts 127°
2026-05-04 20:30 52.13556 5.50620 25860 ft 396 kts 127°
2026-05-04 20:30 52.11966 5.54255 26744 ft 391 kts 128°
2026-05-04 20:31 52.10398 5.57839 27648 ft 386 kts 128°
2026-05-04 20:31 52.08851 5.61367 28589 ft 381 kts 128°
2026-05-04 20:31 52.07318 5.64858 29558 ft 377 kts 129°
2026-05-04 20:31 52.05756 5.68238 30467 ft 370 kts 134°
2026-05-04 20:32 52.04114 5.71355 31325 ft 363 kts 135°
2026-05-04 20:32 52.02471 5.74420 32147 ft 358 kts 136°
2026-05-04 20:32 52.00824 5.77474 32697 ft 363 kts 136°
2026-05-04 20:32 51.99136 5.80603 32901 ft 375 kts 136°
2026-05-04 20:33 51.97381 5.83858 32973 ft 390 kts 136°
2026-05-04 20:33 51.95563 5.87251 33015 ft 406 kts 136°
2026-05-04 20:33 51.93684 5.90772 33029 ft 421 kts 136°
2026-05-04 20:33 51.91740 5.94399 33125 ft 433 kts 136°
2026-05-04 20:34 51.89752 5.98106 33463 ft 437 kts 136°
2026-05-04 20:34 51.87758 6.01818 34036 ft 436 kts 136°
2026-05-04 20:34 51.85765 6.05506 34523 ft 435 kts 136°
2026-05-04 20:34 51.83770 6.09193 34940 ft 435 kts 136°
2026-05-04 20:35 51.81770 6.12878 35375 ft 435 kts 136°
2026-05-04 20:35 51.79775 6.16544 35832 ft 435 kts 136°
2026-05-04 20:35 51.77776 6.20213 36242 ft 436 kts 136°
2026-05-04 20:35 51.75772 6.23880 36650 ft 436 kts 136°
2026-05-04 20:36 51.73756 6.27554 37030 ft 437 kts 136°
2026-05-04 20:36 51.71738 6.31227 37377 ft 439 kts 135°
2026-05-04 20:36 51.69713 6.34920 37722 ft 440 kts 135°
2026-05-04 20:36 51.67687 6.38619 38040 ft 441 kts 135°
2026-05-04 20:37 51.65670 6.42281 38374 ft 443 kts 135°
2026-05-04 20:37 51.63619 6.45989 38718 ft 445 kts 135°
2026-05-04 20:37 51.61558 6.49718 38941 ft 447 kts 135°
2026-05-04 20:37 51.59487 6.53467 38981 ft 448 kts 135°
2026-05-04 20:38 51.55347 6.60938 38967 ft 447 kts 135°
2026-05-04 20:38 51.51202 6.68393 38974 ft 447 kts 135°
2026-05-04 20:39 51.47050 6.75836 38981 ft 447 kts 135°
2026-05-04 20:39 51.42896 6.83261 38986 ft 446 kts 135°
2026-05-04 20:40 51.38853 6.90828 38987 ft 448 kts 132°
2026-05-04 20:40 51.35014 6.98580 38910 ft 443 kts 132°
2026-05-04 20:41 51.33086 7.02463 37941 ft 449 kts 132°
2026-05-04 20:41 51.31129 7.06388 36862 ft 454 kts 133°
2026-05-04 20:41 51.29151 7.10335 36003 ft 453 kts 134°
2026-05-04 20:41 51.27056 7.14031 35273 ft 443 kts 142°
2026-05-04 20:42 51.24631 7.16903 34575 ft 429 kts 155°
2026-05-04 20:42 51.22021 7.19141 33834 ft 423 kts 158°
2026-05-04 20:42 51.19396 7.21253 32985 ft 421 kts 159°
2026-05-04 20:42 51.16782 7.23351 32169 ft 421 kts 158°
2026-05-04 20:43 51.14172 7.25466 31334 ft 421 kts 158°
2026-05-04 20:43 51.11567 7.27595 30545 ft 420 kts 158°
2026-05-04 20:43 51.08987 7.29705 29795 ft 417 kts 157°
2026-05-04 20:43 51.06401 7.31822 28990 ft 415 kts 157°
2026-05-04 20:44 51.03842 7.33913 28296 ft 412 kts 157°
2026-05-04 20:44 51.01305 7.35986 27617 ft 407 kts 157°
2026-05-04 20:44 50.98833 7.38006 26927 ft 403 kts 157°
2026-05-04 20:44 50.96342 7.40035 26214 ft 401 kts 156°
2026-05-04 20:45 50.93873 7.42046 25527 ft 398 kts 156°
2026-05-04 20:45 50.91415 7.44044 24875 ft 396 kts 156°
2026-05-04 20:45 50.88974 7.46024 24162 ft 393 kts 156°
2026-05-04 20:45 50.86542 7.47997 23444 ft 390 kts 156°
2026-05-04 20:46 50.84138 7.49943 22675 ft 389 kts 156°
2026-05-04 20:46 50.81732 7.51891 21942 ft 387 kts 156°
2026-05-04 20:46 50.79337 7.53827 21240 ft 384 kts 156°
2026-05-04 20:46 50.76967 7.55742 20554 ft 380 kts 156°
2026-05-04 20:47 50.74652 7.57611 19924 ft 376 kts 155°
2026-05-04 20:47 50.72304 7.59503 19312 ft 372 kts 156°
2026-05-04 20:47 50.70032 7.61326 18731 ft 370 kts 155°
2026-05-04 20:47 50.67749 7.63163 18166 ft 368 kts 155°
2026-05-04 20:48 50.65477 7.64986 17546 ft 366 kts 155°
2026-05-04 20:48 50.63211 7.66799 16929 ft 364 kts 156°
2026-05-04 20:48 50.60963 7.68601 16349 ft 362 kts 155°
2026-05-04 20:48 50.58724 7.70392 15789 ft 359 kts 156°
2026-05-04 20:49 50.56502 7.72168 15244 ft 357 kts 155°
2026-05-04 20:49 50.54299 7.73930 14706 ft 355 kts 156°
2026-05-04 20:49 50.52104 7.75680 14165 ft 352 kts 156°
2026-05-04 20:49 50.49926 7.77417 13596 ft 350 kts 155°
2026-05-04 20:50 50.47760 7.79146 13012 ft 348 kts 155°
2026-05-04 20:50 50.45609 7.80857 12478 ft 345 kts 156°
2026-05-04 20:50 50.43556 7.82764 11945 ft 345 kts 145°
2026-05-04 20:50 50.41903 7.85471 11575 ft 341 kts 133°
2026-05-04 20:51 50.40418 7.88362 11294 ft 339 kts 132°
2026-05-04 20:51 50.38952 7.91237 11061 ft 333 kts 132°
2026-05-04 20:51 50.37536 7.93987 10839 ft 316 kts 133°
2026-05-04 20:51 50.36178 7.96603 10654 ft 301 kts 133°
2026-05-04 20:52 50.34899 7.99072 10771 ft 291 kts 133°
2026-05-04 20:52 50.33618 8.01531 10975 ft 291 kts 133°
2026-05-04 20:52 50.32343 8.03986 10950 ft 286 kts 133°
2026-05-04 20:52 50.31119 8.06326 10666 ft 278 kts 133°
2026-05-04 20:53 50.29905 8.08648 10389 ft 271 kts 133°
2026-05-04 20:53 50.28711 8.10899 10117 ft 267 kts 136°
2026-05-04 20:53 50.27396 8.12901 9888 ft 263 kts 142°
2026-05-04 20:53 50.26021 8.14810 9714 ft 264 kts 142°
2026-05-04 20:54 50.25074 8.16114 9640 ft 281 kts 142°
2026-05-04 20:54 50.23611 8.18167 9511 ft 284 kts 139°
2026-05-04 20:54 50.22517 8.20748 9368 ft 286 kts 115°
2026-05-04 20:54 50.22156 8.23746 9231 ft 279 kts 95°
2026-05-04 20:55 50.22278 8.26719 9097 ft 269 kts 87°
2026-05-04 20:55 50.22468 8.29580 8964 ft 263 kts 88°
2026-05-04 20:55 50.22641 8.32415 8830 ft 262 kts 88°
2026-05-04 20:55 50.22800 8.35237 8701 ft 261 kts 88°
2026-05-04 20:56 50.22953 8.38061 8574 ft 260 kts 88°
2026-05-04 20:56 50.23103 8.40864 8442 ft 259 kts 88°
2026-05-04 20:56 50.23252 8.43662 8320 ft 258 kts 88°
2026-05-04 20:56 50.23400 8.46457 8190 ft 257 kts 88°
2026-05-04 20:57 50.23546 8.49240 8086 ft 257 kts 88°
2026-05-04 20:57 50.23687 8.52016 7967 ft 255 kts 89°
2026-05-04 20:57 50.23807 8.54777 7818 ft 255 kts 89°
2026-05-04 20:57 50.23926 8.57540 7699 ft 254 kts 89°
2026-05-04 20:58 50.24046 8.60257 7572 ft 253 kts 89°
2026-05-04 20:58 50.24168 8.62979 7349 ft 252 kts 89°
2026-05-04 20:58 50.24291 8.65705 7185 ft 251 kts 89°
2026-05-04 20:58 50.24415 8.68426 7047 ft 250 kts 89°
2026-05-04 20:59 50.24539 8.71138 6917 ft 250 kts 89°
2026-05-04 20:59 50.24652 8.73838 6766 ft 246 kts 91°
2026-05-04 20:59 50.24305 8.76385 6430 ft 239 kts 118°
2026-05-04 20:59 50.23318 8.78418 6069 ft 234 kts 139°
2026-05-04 21:00 50.22093 8.80098 5718 ft 234 kts 141°
2026-05-04 21:00 50.20870 8.81758 5455 ft 230 kts 140°
2026-05-04 21:00 50.19694 8.83380 5318 ft 221 kts 140°
2026-05-04 21:00 50.18575 8.84954 5156 ft 214 kts 139°
2026-05-04 21:01 50.17401 8.86323 4975 ft 211 kts 158°
2026-05-04 21:01 50.15967 8.86612 4950 ft 210 kts 189°
2026-05-04 21:01 50.14709 8.85717 4953 ft 192 kts 219°
2026-05-04 21:01 50.13745 8.84333 4907 ft 185 kts 223°
2026-05-04 21:02 50.12825 8.82936 4594 ft 185 kts 224°
2026-05-04 21:02 50.11901 8.81536 4245 ft 184 kts 224°
2026-05-04 21:02 50.10994 8.80173 3893 ft 184 kts 224°
2026-05-04 21:02 50.10062 8.78783 3526 ft 186 kts 224°
2026-05-04 21:03 50.09118 8.77396 3183 ft 187 kts 224°
2026-05-04 21:03 50.08290 8.75895 2978 ft 178 kts 238°
2026-05-04 21:03 50.07759 8.74245 2987 ft 167 kts 247°
2026-05-04 21:03 50.07338 8.72568 2998 ft 161 kts 250°
2026-05-04 21:04 50.06977 8.71075 2982 ft 132 kts 250°
2026-05-04 21:04 50.06668 8.69786 2964 ft 126 kts 250°
2026-05-04 21:04 50.06346 8.68445 2742 ft 137 kts 250°
2026-05-04 21:04 50.06006 8.67053 2178 ft 144 kts 250°
2026-05-04 21:05 50.05665 8.65666 1666 ft 134 kts 251°
2026-05-04 21:05 50.05350 8.64344 1336 ft 136 kts 250°
2026-05-04 21:05 50.05026 8.63013 1175 ft 129 kts 251°
2026-05-04 21:05 50.04747 8.61681 988 ft 130 kts 252°
2026-05-04 21:06 50.04421 8.60367 738 ft 129 kts 249°
2026-05-04 21:06 50.04118 8.59089 488 ft 125 kts 249°
2026-05-04 21:06 50.03818 8.57854 360 ft 114 kts 250°
2026-05-04 21:06 50.03597 8.56928 354 ft 66 kts 249°
2026-05-04 21:07 50.03497 8.56514 353 ft 17 kts 249°
2026-05-04 21:07 50.03490 8.56487 354 ft 2 kts 249°
2026-05-04 21:07 50.03422 8.56164 351 ft 42 kts 263°